星链-30166 (STARLINK-30166 )

导读

STARLINK-30166是美国SpaceX公司于2023年8月11日发射的Starlink(星链)项目卫星,隶属于星链低轨互联网卫星星座。星链项目旨在为全球提供高速宽带互联网服务,尤其为偏远、欠发达地区提供便捷网络接入。STARLINK-30166运行在近地轨道,通过星链大规模星座组网,为全球用户提供低延迟、高速率的互联网接入服务,是SpaceX推进星链全球覆盖计划的组成部分之一。

Basic Information
目录编号:
57602
目录名称:
STARLINK-30166
国际标识:
2023-119A
轨道中心:
EARTH
卫星名称:
星链-30166
卫星全名:
星链-30166 (STARLINK-30166 )
卫星状态:
在轨 (已飞行1041 天)
发射日期:
2023-08-11 UTC
国别 :
美国 (US)
星等 :
--
Orbit Information
数据来源 国际轨道数据 AOE轨道数据
星历时间 2026-06-17T05:53:52+0800
1天前
查看轨道信息
2026-06-17T07:00:00+0800
23小时前
查看轨道信息
半长轴 6861.179km 6861.19km
偏心率 0.0001467 0.0001831
轨道倾角 43.002° 43.003°
近地点辐角 267.881° 284.853°
升交点赤经 241.019° 240.762°
平近点角 92.187° 328.099°
近地点 482.035km 481.796km
远地点 484.049km 484.31km
周期 94.267分钟 94.267分钟
每日圈数 15.275827 15.275787
Detailed Information
固有亮度:
5
最大亮度:
0.3
卫星平台:
Starlink v2.0 mini
覆盖范围:
全球
运营商:
太空探索技术公司
运营商所在国:
美国
制造商(研发单位):
太空探索技术公司
制造商所在国:
美国
使用方式:
暂无
Satellite Introduction
星链(Starlink)计划是由太空探索技术公司(SpaceX)提出的一个巨型低轨卫星互联网星座项目,计划在2019年至2024年间在太空搭建由约1.2万颗卫星组成的“星链”网络,其中1584颗将部署在地球上空550千米处的近地轨道,并从2020年开始工作。该卫星仍在工作。
2D Orbit Map
3D Orbit Map
Orbit Altitude Analysis Chart
Orbit Inclination Analysis Chart
Orbit Comprehensive Analysis Chart
View Comprehensive Chart